• In Deutschland
  • Länderverzeichnis
  • Für 7 Tage
  • Wassertemperatur
  • Satellitenkarten
  • Wetterkarte
  • Widgets
  • user-avatar
    Anmelden

    Stündliche Wetter Stara Sagora

    Heute, 20 November, Montag

    Zeit Temperatur Niederschläge Wind Luftdruck Luftfeuchtigkeit
    00:00 +8°C° 0,6 mm 2 m/S 737 mmHg 79%
    01:00 +7°C° 0,6 mm 3 m/S 737 mmHg 78%
    02:00 +7°C° 0,6 mm 3 m/S 737 mmHg 77%
    03:00 +7°C° 1,3 mm 3 m/S 737 mmHg 78%
    04:00 +5°C° 1,3 mm 3 m/S 737 mmHg 78%
    05:00 +5°C° 1,3 mm 3 m/S 737 mmHg 78%
    06:00 +4°C° 0,7 mm 4 m/S 737 mmHg 78%
    07:00 +4°C° 0,7 mm 4 m/S 738 mmHg 78%
    08:00 +4°C° 0,7 mm 4 m/S 738 mmHg 78%
    09:00 +4°C° 0,6 mm 4 m/S 738 mmHg 77%
    10:00 +5°C° 0,6 mm 5 m/S 739 mmHg 76%
    11:00 +5°C° 0,6 mm 5 m/S 739 mmHg 75%
    12:00 +4°C° 0,2 mm 6 m/S 739 mmHg 73%
    13:00 +4°C° 0,2 mm 6 m/S 739 mmHg 70%
    14:00 +4°C° 0,2 mm 6 m/S 739 mmHg 68%
    15:00 +4°C° 0 mm 6 m/S 740 mmHg 68%
    16:00 +5°C° 0 mm 5 m/S 740 mmHg 67%
    17:00 +4°C° 0 mm 4 m/S 740 mmHg 67%
    18:00 +4°C° 0 mm 4 m/S 741 mmHg 69%
    19:00 +2°C° 0 mm 5 m/S 741 mmHg 70%
    20:00 +2°C° 0 mm 5 m/S 741 mmHg 72%
    21:00 +2°C° 0 mm 5 m/S 742 mmHg 73%
    22:00 +1°C° 0 mm 4 m/S 742 mmHg 73%
    23:00 +1°C° 0 mm 4 m/S 742 mmHg 74%

    Morgen, 21 November, Dienstag

    Zeit Temperatur Niederschläge Wind Luftdruck Luftfeuchtigkeit
    00:00 +1°C° 0 mm 4 m/S 743 mmHg 74%
    01:00 0°C° 0 mm 4 m/S 743 mmHg 74%
    02:00 +1°C° 0 mm 3 m/S 743 mmHg 74%
    03:00 +1°C° 0 mm 3 m/S 744 mmHg 74%
    04:00 +1°C° 0 mm 3 m/S 744 mmHg 74%
    05:00 +1°C° 0 mm 3 m/S 744 mmHg 74%
    06:00 +2°C° 0 mm 2 m/S 744 mmHg 74%
    07:00 +2°C° 0 mm 2 m/S 744 mmHg 73%
    08:00 +2°C° 0 mm 2 m/S 744 mmHg 72%
    09:00 +4°C° 0 mm 2 m/S 744 mmHg 65%
    10:00 +4°C° 0 mm 3 m/S 744 mmHg 58%
    11:00 +7°C° 0 mm 3 m/S 744 mmHg 51%
    12:00 +8°C° 0 mm 3 m/S 744 mmHg 49%
    13:00 +8°C° 0 mm 3 m/S 743 mmHg 48%
    14:00 +9°C° 0 mm 3 m/S 743 mmHg 46%
    15:00 +8°C° 0 mm 3 m/S 743 mmHg 51%
    16:00 +7°C° 0 mm 2 m/S 742 mmHg 55%
    17:00 +6°C° 0 mm 2 m/S 742 mmHg 59%
    18:00 +6°C° 0 mm 2 m/S 742 mmHg 61%
    19:00 +6°C° 0 mm 2 m/S 742 mmHg 62%
    20:00 +5°C° 0 mm 2 m/S 743 mmHg 63%
    21:00 +5°C° 0 mm 2 m/S 743 mmHg 64%
    22:00 +5°C° 0 mm 2 m/S 743 mmHg 64%
    23:00 +5°C° 0 mm 2 m/S 743 mmHg 65%

    übermorgen, 22 November, Mittwoch

    Zeit Temperatur Niederschläge Wind Luftdruck Luftfeuchtigkeit
    00:00 +5°C° 0 mm 2 m/S 742 mmHg 66%
    01:00 +5°C° 0 mm 2 m/S 742 mmHg 66%
    02:00 +5°C° 0 mm 2 m/S 742 mmHg 67%
    03:00 +5°C° 0 mm 2 m/S 742 mmHg 67%
    04:00 +6°C° 0 mm 2 m/S 742 mmHg 68%
    05:00 +5°C° 0 mm 3 m/S 742 mmHg 68%
    06:00 +5°C° 0 mm 3 m/S 742 mmHg 68%
    07:00 +5°C° 0 mm 3 m/S 742 mmHg 69%
    08:00 +5°C° 0 mm 3 m/S 742 mmHg 69%
    09:00 +7°C° 0 mm 4 m/S 743 mmHg 64%
    10:00 +10°C° 0 mm 4 m/S 743 mmHg 59%
    11:00 +12°C° 0 mm 5 m/S 743 mmHg 53%
    12:00 +13°C° 0 mm 5 m/S 743 mmHg 53%
    13:00 +13°C° 0 mm 5 m/S 743 mmHg 52%
    14:00 +14°C° 0 mm 5 m/S 743 mmHg 52%
    15:00 +13°C° 0 mm 4 m/S 743 mmHg 57%
    16:00 +12°C° 0 mm 3 m/S 744 mmHg 63%
    17:00 +10°C° 0 mm 2 m/S 744 mmHg 68%
    18:00 +10°C° 0 mm 2 m/S 745 mmHg 71%
    19:00 +9°C° 0 mm 2 m/S 745 mmHg 74%
    20:00 +10°C° 0 mm 1 m/S 746 mmHg 77%
    21:00 +9°C° 0 mm 1 m/S 746 mmHg 78%
    22:00 +9°C° 0 mm 1 m/S 747 mmHg 80%
    23:00 +9°C° 0 mm 1 m/S 747 mmHg 81%

    23 November, Donnerstag

    Zeit Temperatur Niederschläge Wind Luftdruck Luftfeuchtigkeit
    00:00 +8°C° 0 mm 1 m/S 747 mmHg 83%
    01:00 +8°C° 0 mm 1 m/S 747 mmHg 84%
    02:00 +8°C° 0 mm 1 m/S 747 mmHg 86%
    03:00 +7°C° 0 mm 1 m/S 747 mmHg 87%
    04:00 +7°C° 0 mm 1 m/S 747 mmHg 87%
    05:00 +6°C° 0 mm 0 m/S 747 mmHg 88%
    06:00 +6°C° 0 mm 0 m/S 748 mmHg 87%
    07:00 +6°C° 0 mm 0 m/S 748 mmHg 87%
    08:00 +6°C° 0 mm 0 m/S 748 mmHg 87%
    09:00 +8°C° 0 mm 1 m/S 749 mmHg 80%
    10:00 +10°C° 0 mm 1 m/S 749 mmHg 74%
    11:00 +12°C° 0 mm 1 m/S 749 mmHg 67%
    12:00 +12°C° 0 mm 1 m/S 749 mmHg 64%
    13:00 +13°C° 0 mm 1 m/S 748 mmHg 61%
    14:00 +14°C° 0 mm 1 m/S 748 mmHg 58%
    15:00 +13°C° 0 mm 1 m/S 748 mmHg 63%
    16:00 +12°C° 0 mm 1 m/S 748 mmHg 67%
    17:00 +10°C° 0 mm 0 m/S 748 mmHg 71%
    18:00 +10°C° 0 mm 1 m/S 748 mmHg 73%
    19:00 +10°C° 0 mm 1 m/S 748 mmHg 74%
    20:00 +9°C° 0 mm 1 m/S 749 mmHg 76%
    21:00 +9°C° 0 mm 1 m/S 749 mmHg 76%
    22:00 +9°C° 0 mm 1 m/S 749 mmHg 76%
    23:00 +9°C° 0 mm 1 m/S 749 mmHg 76%

    24 November, Freitag

    Zeit Temperatur Niederschläge Wind Luftdruck Luftfeuchtigkeit
    00:00 +8°C° 0 mm 1 m/S 749 mmHg 75%
    01:00 +8°C° 0 mm 1 m/S 749 mmHg 75%
    02:00 +8°C° 0 mm 1 m/S 748 mmHg 74%
    03:00 +8°C° 0 mm 1 m/S 748 mmHg 73%
    04:00 +8°C° 0 mm 1 m/S 748 mmHg 72%
    05:00 +8°C° 0 mm 1 m/S 748 mmHg 71%
    06:00 +8°C° 0 mm 1 m/S 748 mmHg 70%
    07:00 +8°C° 0 mm 1 m/S 748 mmHg 69%
    08:00 +8°C° 0 mm 1 m/S 748 mmHg 68%
    09:00 +10°C° 0 mm 1 m/S 748 mmHg 61%
    10:00 +12°C° 0 mm 1 m/S 748 mmHg 55%
    11:00 +13°C° 0 mm 1 m/S 748 mmHg 48%
    12:00 +14°C° 0 mm 1 m/S 748 mmHg 46%
    13:00 +15°C° 0 mm 1 m/S 748 mmHg 43%
    14:00 +16°C° 0 mm 1 m/S 747 mmHg 41%
    15:00 +14°C° 0 mm 1 m/S 747 mmHg 46%
    16:00 +13°C° 0 mm 1 m/S 747 mmHg 51%
    17:00 +11°C° 0 mm 0 m/S 747 mmHg 56%
    18:00 +11°C° 0 mm 1 m/S 747 mmHg 57%
    19:00 +11°C° 0 mm 1 m/S 748 mmHg 58%
    20:00 +10°C° 0 mm 1 m/S 748 mmHg 60%
    21:00 +10°C° 0 mm 1 m/S 748 mmHg 60%
    22:00 +10°C° 0 mm 1 m/S 748 mmHg 60%
    23:00 +10°C° 0 mm 1 m/S 748 mmHg 61%

    25 November, Samstag

    Zeit Temperatur Niederschläge Wind Luftdruck Luftfeuchtigkeit
    00:00 +9°C° 0 mm 1 m/S 748 mmHg 61%
    01:00 +9°C° 0 mm 1 m/S 748 mmHg 60%
    02:00 +9°C° 0 mm 1 m/S 748 mmHg 60%
    03:00 +9°C° 0 mm 1 m/S 748 mmHg 60%
    04:00 +9°C° 0 mm 1 m/S 748 mmHg 61%
    05:00 +8°C° 0 mm 1 m/S 748 mmHg 61%
    06:00 +8°C° 0 mm 1 m/S 749 mmHg 61%
    07:00 +8°C° 0 mm 1 m/S 749 mmHg 62%
    08:00 +8°C° 0 mm 1 m/S 750 mmHg 62%
    09:00 +10°C° 0 mm 1 m/S 750 mmHg 58%
    10:00 +11°C° 0 mm 1 m/S 750 mmHg 54%
    11:00 +13°C° 0 mm 1 m/S 751 mmHg 49%
    12:00 +14°C° 0 mm 2 m/S 751 mmHg 49%
    13:00 +14°C° 0 mm 2 m/S 750 mmHg 49%
    14:00 +15°C° 0 mm 2 m/S 750 mmHg 48%
    15:00 +13°C° 0 mm 2 m/S 751 mmHg 54%
    16:00 +12°C° 0 mm 2 m/S 751 mmHg 60%
    17:00 +11°C° 0 mm 1 m/S 751 mmHg 66%
    18:00 +9°C° 0 mm 2 m/S 751 mmHg 70%
    19:00 +9°C° 0 mm 2 m/S 752 mmHg 74%
    20:00 +8°C° 0 mm 2 m/S 752 mmHg 78%
    21:00 +9°C° 0 mm 1 m/S 752 mmHg 82%
    22:00 +9°C° 0 mm 1 m/S 752 mmHg 85%
    23:00 +8°C° 0 mm 1 m/S 752 mmHg 88%
    Mehr zeigen